Preview of NWS' New Version of Forecast
This preview is not operational and should not be used for support decisions.

Regional Weather Roundup (RWR)

Issued by National Weather Service (NWS)

                            
000
ASUS46 KSEW 230510
RWRWA 

WASHINGTON REGIONAL WEATHER ROUNDUP
NATIONAL WEATHER SERVICE SEATTLE WA
1000 PM PDT SAT JUN 22 2019

NOTE:"FAIR" INDICATES FEW OR NO CLOUDS BELOW 12,000 FEET WITH NO 
SIGNIFICANT WEATHER AND/OR OBSTRUCTIONS TO VISIBILITY.

WAZ507-509-555>559-230600-
SEATTLE, TACOMA, EVERETT, AND VICINITY
  
CITY           SKY/WX    TMP DP  RH WIND       PRES   REMARKS
EVERETT        CLOUDY    56  50  80 N5        30.19S                  
BOEING FIELD   CLOUDY    62  50  64 W7        30.18R                  
RENTON         MOCLDY    63  51  65 CALM      30.17S                  
SEATAC AIRPORT CLOUDY    61  52  72 SW6       30.18S                  
JBLM-MCCHORD   CLOUDY    61  57  88 W8        30.19R                  
PUYALLUP       MOCLDY    61  54  77 W7        30.19R                  
BREMERTON      CLOUDY    59  51  75 NE7       30.18S                  
JBLM-FT LEWIS  CLOUDY    61  58  90 S6        30.18R                  
TACOMA NARROWS CLOUDY    59  52  77 SW8       30.19S                  
$$
 
WAZ001-503-506-510-514-515-230600-
NORTH INTERIOR
  
CITY           SKY/WX    TMP DP  RH WIND       PRES   REMARKS
BELLINGHAM     PTCLDY    58  50  75 S15G24    30.14S                  
FRIDAY HARBOR  PTCLDY    54  49  83 SW5       30.15R                  
EASTSOUND      MOCLDY    57  52  82 S15       30.12S                  
PORT ANGELES   MOCLDY    52  50  93 W13       30.20R                  
EDIZ HOOK      FAIR      53  49  89 W16G22    30.19S                  
PORT TOWNSEND  CLOUDY    54  52  94 NW7       30.18S                  
NAS WHIDBEY    MOCLDY    57  50  77 SW13G22   30.22S                  
ARLINGTON      CLOUDY    58  52  80 NW7       30.19R                  
BURLINGTON     CLOUDY    57  52  82 SW14      30.18S                  
$$
 
WAZ020-022-039-040-504-511-512-230600-
SOUTHWEST INTERIOR
  
CITY           SKY/WX    TMP DP  RH WIND       PRES   REMARKS
SHELTON        CLOUDY    59  52  77 SW7       30.16S                  
OLYMPIA        CLOUDY    59  51  75 SW6       30.19S                  
CHEHALIS       CLOUDY    59  55  88 SW5       30.21S                  
KELSO          CLOUDY    60  53  77 CALM      30.23R                  
VANCOUVER      CLOUDY    62  50  64 NW12      30.21R                  
SCAPPOOSE, OR  CLOUDY    61  51  70 NW5       30.21R                  
PORTLAND, OR   MOCLDY    63  51  65 NW8       30.21R                  
$$
 
WAZ021-516-517-230600-
WASHINGTON COAST
  
CITY           SKY/WX    TMP DP  RH WIND       PRES   REMARKS
FORKS          CLOUDY    53  49  86 VRB6      30.25R                  
HOQUIAM        CLOUDY    54  53  97 NW10G22   30.23S                  
ASTORIA, OR    CLOUDY    56  54  93 NW12      30.24S                  
$$
 
WAZ019-023-024-040-567>569-230600-
CASCADE MOUNTAINS AND COLUMBIA GORGE
  
CITY           SKY/WX    TMP DP  RH WIND       PRES   REMARKS
STAMPEDE PASS  CLOUDY    46  42  86 W8G20     30.17S                  
TROUTDALE, OR  CLOUDY    63  51  65 VRB5      30.21R                  
HOOD RIVER, OR MOCLDY    63  46  55 CALM      30.14R                  
THE DALLES, OR PTCLDY    66  47  50 SW16G25   30.08R                  
$$

WAZ026-027-041>044-520-521-230600-
EAST SLOPES
  
CITY           SKY/WX    TMP DP  RH WIND       PRES   REMARKS
OMAK           PTCLDY    70  39  32 NW14      29.91R                  
WENATCHEE      CLEAR     65  39  38 W14       29.98R                  
ELLENSBURG     PTCLDY    59  43  55 NW23G35   30.04F                  
YAKIMA         PTCLDY    65  43  44 NW15G22   30.03R                  
SUNNYSIDE ARPT PTCLDY    67  42  39 W14G22    29.99R                  
YAKIMA TC      FAIR      63  41  45 N13G23    30.04R                  
$$

WAZ028-034-035-230600-
COLUMBIA BASIN
  
CITY           SKY/WX    TMP DP  RH WIND       PRES   REMARKS
EPHRATA        CLEAR     69  35  28 NW18      29.93R                  
MOSES LAKE     CLEAR     71  36  27 W13       29.95R                  
PASCO          MOCLDY    72  41  32 NW17G25   29.96R                  
RICHLAND ARPT  PTCLDY    73  41  31 NW10G16   29.96                   
HERMISTON, OR  MOCLDY    68  47  46 SW22G32   29.97R                  
$$

WAZ036>038-230600-
NORTHEAST WASHINGTON
  
CITY           SKY/WX    TMP DP  RH WIND       PRES   REMARKS
SPOKANE GEIGER MOCLDY    66  42  41 S8        29.97S                  
SPOKANE FELTS  PTCLDY    64  46  52 CALM      29.96S                  
FAIRCHILD AFB  MOCLDY    61  44  53 SE5       29.97F                  
COEURDALENE,ID PTCLDY    61  45  55 S7        29.98F                  
DEER PARK      PTCLDY    63  44  50 S5        29.96S                  
$$

WAZ029>033-230600-
SOUTHEAST WASHINGTON
  
CITY           SKY/WX    TMP DP  RH WIND       PRES   REMARKS
PULLMAN        PTCLDY    61  49  64 S3        30.03R                  
LEWISTON, ID   MOCLDY    71  50  47 CALM      29.97R                  
WALLA WALLA    PTCLDY    68  45  43 S10       30.00R                  
PENDLETON, OR  PTCLDY    66  41  40 W21G32    30.00R                  
$$